Weather in Zabolotye

Russia / Tver Oblast     58°07′58″N   35°44′35″E
temp.,
°C
wind,
m/s
gust,
m/s
humid.,
%
clouds,
%
prec.,
mm/h
press.,
hPa
HPBL,
m
17 october, sun
sun1700:00+4ssw513815 0.0 1006615
03:00+5sw6138481 0.0 10051205
06:00+6sw51181100 0.1 10051133
09:00+6sw51177100 0.3 10051091
12:00+8wsw5117095 0.1 10061380
15:00+7wsw51169100 0.4 10061393
18:00+6wsw5117495 0.4 1006984
21:00+5wsw411770 0.5 1007581
18 october, mon
mon1800:00+3sw39870 0.0 1007318
03:00+2sw310905 0.0 1007347
06:00+2sw311931 0.0 1006407
09:00+2sw411889 0.0 1006575
12:00+5wsw5870100 0.1 10051111
15:00+3w499199 0.4 1006776
18:00+2w41096100 0.4 1007894
21:00+2wnw4985100 0.7 1008803
19 october, tue
tue1900:00+1wnw41096100 0.8 1010547
03:00+2nw3783100 1.1 1012965
06:00+2nw3880100 0.0 1013589
09:00+2wnw3782100 0.0 1014672
12:00+3wnw3673100 0.1 1015749
15:00+3wnw4683100 0.2 1016863
18:00+1nw3798100 0.7 1017375
21:00−1nw410775 0.9 1019579
20 october, wed
wed2000:00−2nw39845 0.0 1021449
03:00−3wnw28895 0.0 1021363
06:00−3w2686100 0.0 1022273
09:00−1w247851 0.0 1021306
12:00+1sw245915 0.0 1020844
15:00+2ssw3657100 0.0 1018867
18:00+1s41164100 0.0 1015597
21:000s51491100 0.1 1011648
21 october, thu
thu2100:00+2s61592100 1.6 1006787
03:00+2s61691100 3.9 1002767
06:00+4ssw61593100 0.6 999677
09:00+6ssw61794100 1.1 996762
12:00+8ssw61693100 1.0 994709
15:00+8ssw61693100 3.3 992872
18:00+9ssw71789100 0.0 9901105
21:00+10sw8178499 0.6 9901357